Showing default

COSMOS 2091, 20736

Orbit data source: Space-Track

COSMOS 2091, 20736 is a payload satellite owned by UNKS (CIS) in LEO that was launched on Wed, 08 Aug 1990 UTC via a TSIKLON-3 launch vehicle from the Plesetsk Missile And Space Complex (PKMTR). Payload-class satellites include a variety of spacecraft equipped with specific instruments for various scientific and technological missions. These include communications satellites like Starlink; space stations such as the ISS; scientific satellites like the Hubble; Earth observation satellites from companies like Planet Labs, Umbra, and HawkEye 360; GPS; miniature CubeSats for education and research; and military/defense satellites.

Loading next visibility...
Identifier
20736, 1990-070B
Orbit
LEO
Country
Flag of CISCIS
Related business
Manufacturer
NPO PM
Mission
Defense Communications
Bus & Motor
STRELA-3, Unknown motor
Mass
225 kg wet, 225 kg dry
Launch date (UTC)
1990-08-08 (35 years ago)
Launch vehicle
TSIKLON-3
Launch site
Plesetsk Missile And Space Complex (PKMTR)
Object type
Payload
Rocket body
Debris
Shape & HBR
Cyl, 0.8 m
Radar Cross Section
1.257 m², Large (>1 m²)

Expand to show TLE details & history
Last TLE update: 12 hours ago

TLE from 12 hours ago
0 COSMOS 2091
1 20736U 90070B   25353.22325635  .00000011  00000-0  48392-5 0  9993
2 20736  82.5781  83.0726 0004296 147.5541 240.1023 12.62555015629602
Epoch: 2025-12-19T05:21Z
TLE epoch observation values (Epoch: 2025-12-19T05:21:29.348Z)
Latitude
27.39944°
Longitude
-81.51466°
Altitude
1,417.299 km
Speed
7.154 km/s
True Right ascension
05h 47m 42s
True Declination
27° 16' 16"
Sunlit
Object was in full shadow at epoch
Visualization orbit readout
Latitude
Unknown
Longitude
Unknown
Altitude
Unknown
Speed
Unknown
Apparent Right ascension
Unknown
Apparent Declination
Unknown
Sunlit
N/A
Visualization observer readout
Local Sidereal Time
16:25:47
Azimuth
Unknown
Elevation
Unknown
Doppler factor
Unknown
Orbital elements
Apogee altitude
1,413.082 km
Perigee altitude
1,406.391 km
Semi-major axis
7,787.874 km
Eccentricity
0.00043
Inclination
82.5781°
RAAN
83.0726°
Arg. of periapsis
147.5541°
True anomaly
240.05963°
Mean anomaly
240.1023°
Eccentric anomaly
240.08097°
Mean motion
3.15802 °/min
Orbital period
114 mins
BSTAR
0.0000048392
Loading maneuver chart data...
Computing Atmospheric mass density...
Loading historical data...
Loading historical data...
Loading historical data...
Loading historical data...
Loading historical data...
Loading historical data...
Loading historical data...

Documentation

Showing up to 5 results
|